Regional Weather Roundup
Issued by NWS

Home | Current Version | Previous Version | Text Only | Print | Product List | Glossary On
Versions: 1 2 3 4 5 6 7 8 9 10 11 12 13 14 15 16 17 18 19 20 21 22 23 24 25 26 27 28 29 30 31 32 33 34 35 36 37 38 39 40 41 42 43 44 45 46 47 48 49 50
567
ASUS42 KKEY 300310
RWRKEY

FLORIDA REGIONAL WEATHER ROUNDUP FOR THE FLORIDA KEYS
NATIONAL WEATHER SERVICE KEY WEST FLORIDA
1100 PM EDT MON MAY 29 2017

...SOUTH FLORIDA AND THE KEYS...

CITY           SKY/WX    TMP DP  RH WIND       PRES   REMARKS
FORT MYERS     CLOUDY    83  75  77 NW5       30.08R HX  90
SW REGIONAL AP CLOUDY    79  70  74 SE6       30.09R
NAPLES         CLEAR     79 N/A N/A CALM      30.09R
MIAMI          MOCLDY    84  72  67 SE3       30.11R
WEST KENDALL     N/A    N/A N/A N/A MISG        N/A
HOMESTEAD      CLEAR     79  77  92 CALM      30.10R
MARATHON       CLEAR     84  75  74 E6        30.09R HX  92
BOCA CHICA NAS CLEAR     83  75  77 E14       30.09R HX  90
KEY WEST INTL  CLEAR     84  74  71 E10       30.09R HX  91

...INTERNATIONAL WEATHER...

CITY           SKY/WX    TMP DP  RH WIND       PRES   REMARKS
NASSAU BAHAMAS PTCLDY    84  75  74 E3        30.13S HX  92
CANCUN MEXICO  MOCLDY    82  77  83 E10       30.02R HX  91
COZUMEL MEXICO PTCLDY    81  75  83 SE5       30.00R

ADJACENT COASTAL WATERS...

STATION/POSITION TIME  SKY/WX   TEMP    WIND        PRES    WAVE
                                AIR SEA DIR/SP/G            HT/PER
                 (UTC)          (F)     (DEG/KT/KT) (MB)    (FT/S)
PULASKI SHOAL LI 0300            82      80/ 12/ 13 1018.7R
SAND KEY         0150            83     100/ 13/ 14 1018.5R
LONG KEY         0200            84 90  140/  7/ 10 1018.5R
MOLASSES REEF    0200            83 83   80/  7/  8 1019.0R
FOWEY ROCKS      0300            83 82  130/ 12/ 13 1020.0R
Buoy 42097       0300                                 N/A     1/ 6

$$




USA.gov is the U.S. government's official web portal to all federal, state and local government web resources and services.